ARIANE 42P DEB, 44513

Orbit data source: Space-Track

ARIANE 42P DEB, 44513 is space debris in LEO originally from a launch on Mon, 10 Aug 1992 UTC launched from the French Guiana (FRGUI). Debris objects in space refer to the collection of defunct objects orbiting the Earth. Examples of debris include non-operational satellites, rocket bodies, and fragments generated from explosions, collisions, or faulty payload assembly.

Loading next visibility...
Identifier
44513, 1992-052L
Orbit
LEO
Last TLE update
2 days ago
Origin
Manufacturer
ArianeGroup
Mission
Spacecraft
Bus & Motor
Unknown
Mass
Unknown
Launch date (UTC)
1992-08-10 (33 years ago)
Launch vehicle
Unknown
Launch site
French Guiana (FRGUI)
Object type
Payload
Rocket body
Debris
Shape & HBR
Unknown
Radar Cross Section
Small (<0.1 m²)

Expand to show TLE details & history

TLE from 2 days ago
0 ARIANE 42P DEB
1 44513U 92052L   25131.17001748  .00000066  00000-0  56240-3 0  9997
2 44513  66.0411  55.4762 0027777 145.3055 214.9778 12.79386889267283
Epoch: 2025-05-11T04:04Z
Definitive object data (Epoch: 2025-05-11T04:04:49.51Z)
Latitude
-0.00002°
Longitude
125.0686°
Altitude
1,363.441 km
Speed
7.169 km/s
True Right ascension
03h 41m 54s
True Declination
0° 00' 00"
Sunlit
Object was in daylight at TLE epoch
Visualization TLE readout
Latitude
27.69675°
Longitude
-73.1133°
Altitude
1,325.002 km
Speed
7.207 km/s
Apparent Right ascension
11h 51m 04s
Apparent Declination
-3° 51' 41"
Sunlit
Object is in full shadow
Visualization observer readout
Local Sidereal Time
19:41:15
Azimuth
285.444° WNW
Elevation
-23.397°
Doppler factor
1
Orbital elements
Apogee altitude
1,363.946 km
Perigee altitude
1,321.055 km
Semi-major axis
7,720.637 km
Eccentricity
0.0027777
Inclination
66.0411°
RAAN
55.4762°
Arg. of periapsis
145.3055°
True anomaly
214.79585°
Mean anomaly
214.9778°
Eccentric anomaly
214.88677°
Mean motion
3.19936 °/min
BSTAR
0.0005624
Orbital period
112.52 mins
Loading maneuver chart data...
Loading SW <> Apogee altitude chart data...
Loading historical data...
Loading historical data...
Loading historical data...
Loading historical data...
Loading historical data...
Loading historical data...
Loading historical data...

ARIANE 42P DEB Visibility forecast

Observer location: undefined°, undefined°

Span
Click to sort rows by Start time (UTC) header in descending order
Start Az.
Max El. time (UTC)
Max El. Az.
Max El.
End time (UTC)
End Az.
6 mins2025-05-13 18:07:51.132Z121.78° SE2025-05-13 18:10:51.132Z99.201° ESE13.235°2025-05-13 18:13:51.132Z76.558° E
14 mins2025-05-13 19:58:51.132Z199.373° SSW2025-05-13 20:05:51.132Z96.906° ESE44.096°2025-05-13 20:12:51.132Z33.593° NE
12 mins2025-05-13 21:56:51.132Z267.013° W2025-05-13 22:02:51.132Z322.915° NNW25.42°2025-05-13 22:08:51.132Z13.371° NNE
13 mins2025-05-14 03:55:51.132Z347.979° N2025-05-14 04:01:51.132Z48.658° ENE30.371°2025-05-14 04:08:51.132Z110.73° ESE
14 mins2025-05-14 05:51:51.132Z318.921° NNW2025-05-14 05:57:51.132Z253.988° W39.817°2025-05-14 06:05:51.132Z171.594° S
|